Regional Weather Roundup
Issued by NWS Green Bay, WI

Home | Current Version | Previous Version | Text Only | Print | Product List | Glossary On
Versions: 1 2 3 4 5 6 7 8 9 10 11 12 13 14 15 16 17 18 19 20 21 22 23 24 25 26 27 28 29 30 31 32 33 34 35 36 37 38 39 40 41 42 43 44 45 46 47 48 49 50
000
ASUS43 KGRB 300659
RWRGRB

NORTH-CENTRAL AND NORTHEAST WISCONSIN REGIONAL WEATHER ROUNDUP
NATIONAL WEATHER SERVICE GREEN BAY WI
100 AM CST FRI JAN 30 2015

WIZ005-009-010>012-018-019-300800-
NORTH CENTRAL WISCONSIN

CITY           SKY/WX    TMP DP  RH WIND       PRES   REMARKS
IRONWOOD       CLOUDY    12   3  67 NW9       30.40S WCI   0
MANITOWISH WTR NOT AVBL
ARBOR VITAE    NOT AVBL
EAGLE RIVER    NOT AVBL
LAND O LAKES   NOT AVBL
RHINELANDER    CLOUDY    13   3  64 NW9G18    30.36R WCI   1
PHILLIPS       NOT AVBL
ANTIGO         NOT AVBL
TOMAHAWK       NOT AVBL
MERRILL        NOT AVBL
$$

WIZ013-073-300800-
NORTHEAST WISCONSIN

CITY           SKY/WX    TMP DP  RH WIND       PRES   REMARKS
IRON MOUNTAIN  CLOUDY    13   5  70 NW15      30.35R WCI  -3
MARINETTE      CLOUDY    18   7  62 N10       30.38R WCI   6
$$

WIZ017-030-035>037-045-300800-
CENTRAL WISCONSIN

CITY           SKY/WX    TMP DP  RH WIND       PRES   REMARKS
MEDFORD        NOT AVBL
WAUSAU         CLOUDY    17   4  56 N9        30.38R WCI   6
MOSINEE        NOT AVBL
MARSHFIELD     CLOUDY    16   5  62 NW14      30.41R WCI   2
WISC RAPIDS    CLOUDY    19   8  62 N12       30.43R WCI   7
STEVENS POINT  NOT AVBL
WAUPACA        NOT AVBL
SHAWANO        NOT AVBL
CLINTONVILLE   NOT AVBL
$$

WIZ038-039-048-051-300800-
FOX VALLEY

CITY           SKY/WX    TMP DP  RH WIND       PRES   REMARKS
NWS GREEN BAY  MOCLDY    20   9  62 N13       30.39R WCI   7
APPLETON       NOT AVBL
OSHKOSH        PTCLDY    20   8  60 NW10      30.38R WCI   9
FOND DU LAC    CLEAR     20   7  57 N9        30.38R WCI   9
$$

WIZ022-050-052-300800-
EAST CENTRAL WISCONSIN

CITY           SKY/WX    TMP DP  RH WIND       PRES   REMARKS
STURGEON BAY   CLOUDY    16   7  67 N13       30.38R WCI   2
MANITOWOC      NOT AVBL
SHEBOYGAN      CLOUDY    22  12  65 N8        30.36R
$$

LMZ563-521-522-541>543-300800-
LAKESHORE

STATION/POSITION TIME  TEMP    WIND        PRES    VSBY  WAVE
                       AIR SEA DIR/SP/G                  HT/PER
                 (UTC) (F)     (DEG/KT/KT) (MB)    (MI)  (FT/S)
SHEBOYGAN LKSHOR 0600   24     350/ 21/ 25 1028.6R
KEWAUNEE LKSHORE 0600   18     340/  7/ 11 1027.2R
NORTHPORT PIER   0600   18     330/ 24/ 31 1027.4R
SISTER BAY LKSHO 0600   16     350/ 26/ 32   N/A
CHAMBERS ISLAND  0600   17     320/ 14/ 20 1028.1R
MENOMINEE LKSHOR 0600   18     320/ 13     1029.0R
$$


USA.gov is the U.S. government's official web portal to all federal, state and local government web resources and services.